Location: Bachas
(43.2439°N, 0.9375°E)
Time: 00:25:02
(UTC+00:00)

Cosmos 1400 Rocket - Pass Details

Date: 18 February 2020
Orbit: 521 x 568 km, 81.2° (Epoch: 09 April)

Event Time Altitude Azimuth Distance (km) Brightness Sun altitude
Rises 05:46:24 0° 183° (S) 2,686 6.4 -12.4°
Reaches altitude 10° 05:48:32 10° 180° (S) 1,807 5.5 -12.0°
Maximum altitude 05:52:30 69° 97° (E) 593 3.2 -11.3°
Drops below altitude 10° 05:56:33 10° 15° (NNE) 1,850 5.6 -10.5°
Sets 05:58:45 0° 13° (NNE) 2,758 6.5 -10.1°
